Time,TemperatureF,DewpointF,PressureIn,WindDirection,WindDirectionDegrees,WindSpeedMPH,WindSpeedGustMPH,Humidity,HourlyPrecipIn,Conditions,Clouds,dailyrainin,SoftwareType,DateUTC
2013-11-14 00:00:00,32.6,19.9,30.32,SW,215,8.0,28.0,59,0.00,,,0.10,WUHU216DAVISVP2,2013-11-14 05:00:00,
2013-11-14 00:01:00,32.6,19.9,30.32,WSW,242,12.0,28.0,59,0.00,,,0.10,WUHU216DAVISVP2,2013-11-14 05:01:00,
2013-11-14 00:02:00,32.6,19.9,30.32,SSW,202,4.0,28.0,59,0.00,,,0.10,WUHU216DAVISVP2,2013-11-14 05:02:00,
2013-11-14 00:07:00,32.5,20.2,30.32,West,259,6.0,26.0,60,0.00,,,0.00,WUHU216DAVISVP2,2013-11-14 05:07:00,
2013-11-14 00:12:00,32.6,20.3,30.32,SSW,198,4.0,30.0,60,0.00,,,0.00,WUHU216DAVISVP2,2013-11-14 05:12:00,
2013-11-14 00:17:00,32.5,20.2,30.31,SW,229,8.0,30.0,60,0.00,,,0.00,WUHU216DAVISVP2,2013-11-14 05:17:00,
2013-11-14 00:22:00,32.5,19.8,30.31,WSW,250,2.0,24.0,59,0.00,,,0.00,WUHU216DAVISVP2,2013-11-14 05:22:00,
2013-11-14 00:27:00,32.5,19.8,30.31,SW,229,4.0,24.0,59,0.00,,,0.00,WUHU216DAVISVP2,2013-11-14 05:27:00,
2013-11-14 00:32:00,32.6,19.9,30.31,SSE,148,14.0,26.0,59,0.00,,,0.00,WUHU216DAVISVP2,2013-11-14 05:32:00,
2013-11-14 00:37:00,32.7,19.6,30.31,SW,217,4.0,26.0,58,0.00,,,0.00,WUHU216DAVISVP2,2013-11-14 05:37:00,
2013-11-14 00:42:00,32.8,19.7,30.31,SW,226,6.0,24.0,58,0.00,,,0.00,WUHU216DAVISVP2,2013-11-14 05:42:00,
2013-11-14 00:47:00,32.8,19.7,30.31,South,170,12.0,24.0,58,0.00,,,0.00,WUHU216DAVISVP2,2013-11-14 05:47:00,
2013-11-14 00:52:00,32.8,19.7,30.31,SW,223,4.0,22.0,58,0.00,,,0.00,WUHU216DAVISVP2,2013-11-14 05:52:00,
2013-11-14 00:57:00,32.8,19.7,30.31,WSW,250,8.0,24.0,58,0.00,,,0.00,WUHU216DAVISVP2,2013-11-14 05:57:00,
2013-11-14 01:05:00,32.7,19.9,30.30,West,264,6.0,24.0,59,0.00,,,0.00,WUHU216DAVISVP2,2013-11-14 06:05:00,
2013-11-14 01:10:00,32.5,19.8,30.30,SSW,213,2.0,26.0,59,0.00,,,0.00,WUHU216DAVISVP2,2013-11-14 06:10:00,
2013-11-14 01:15:00,32.4,20.1,30.30,WSW,258,10.0,26.0,60,0.00,,,0.00,WUHU216DAVISVP2,2013-11-14 06:15:00,
2013-11-14 01:20:00,32.4,19.7,30.30,NW,314,0.0,22.0,59,0.00,,,0.00,WUHU216DAVISVP2,2013-11-14 06:20:00,
2013-11-14 01:25:00,32.3,20.0,30.30,West,264,16.0,24.0,60,0.00,,,0.00,WUHU216DAVISVP2,2013-11-14 06:25:00,
2013-11-14 01:30:00,32.4,19.7,30.30,West,278,2.0,24.0,59,0.00,,,0.00,WUHU216DAVISVP2,2013-11-14 06:30:00,
2013-11-14 01:35:00,32.3,20.0,30.30,SW,236,16.0,20.0,60,0.00,,,0.00,WUHU216DAVISVP2,2013-11-14 06:35:00,
2013-11-14 01:40:00,32.3,20.0,30.30,South,188,12.0,20.0,60,0.00,,,0.00,WUHU216DAVISVP2,2013-11-14 06:40:00,
2013-11-14 01:45:00,32.1,19.8,30.30,West,271,14.0,20.0,60,0.00,,,0.00,WUHU216DAVISVP2,2013-11-14 06:45:00,
2013-11-14 01:50:00,32.2,19.9,30.30,WNW,287,8.0,22.0,60,0.00,,,0.00,WUHU216DAVISVP2,2013-11-14 06:50:00,
2013-11-14 01:55:00,32.3,20.0,30.30,SW,231,6.0,22.0,60,0.00,,,0.00,WUHU216DAVISVP2,2013-11-14 06:55:00,
2013-11-14 02:00:00,32.3,20.0,30.30,WSW,251,4.0,24.0,60,0.00,,,0.00,WUHU216DAVISVP2,2013-11-14 07:00:00,
2013-11-14 02:05:00,32.2,19.5,30.30,South,173,2.0,32.0,59,0.00,,,0.00,WUHU216DAVISVP2,2013-11-14 07:05:00,
2013-11-14 02:10:00,32.1,19.8,30.30,WSW,244,8.0,32.0,60,0.00,,,0.00,WUHU216DAVISVP2,2013-11-14 07:10:00,
2013-11-14 02:15:00,32.2,19.9,30.30,SW,225,6.0,20.0,60,0.00,,,0.00,WUHU216DAVISVP2,2013-11-14 07:15:00,
2013-11-14 02:20:00,32.2,19.5,30.30,WSW,238,6.0,22.0,59,0.00,,,0.00,WUHU216DAVISVP2,2013-11-14 07:20:00,
2013-11-14 02:25:00,32.3,19.6,30.31,SW,227,8.0,22.0,59,0.00,,,0.00,WUHU216DAVISVP2,2013-11-14 07:25:00,
2013-11-14 02:30:00,32.3,19.6,30.31,SW,219,4.0,18.0,59,0.00,,,0.00,WUHU216DAVISVP2,2013-11-14 07:30:00,
2013-11-14 02:35:00,32.4,19.7,30.31,WNW,296,4.0,20.0,59,0.00,,,0.00,WUHU216DAVISVP2,2013-11-14 07:35:00,
2013-11-14 02:40:00,32.4,19.7,30.31,SW,236,6.0,20.0,59,0.00,,,0.00,WUHU216DAVISVP2,2013-11-14 07:40:00,
2013-11-14 02:45:00,32.5,19.4,30.31,SW,219,8.0,20.0,58,0.00,,,0.00,WUHU216DAVISVP2,2013-11-14 07:45:00,
2013-11-14 02:50:00,32.5,19.8,30.31,WSW,244,8.0,20.0,59,0.00,,,0.00,WUHU216DAVISVP2,2013-11-14 07:50:00,
2013-11-14 02:55:00,32.3,20.0,30.30,SW,223,8.0,20.0,60,0.00,,,0.00,WUHU216DAVISVP2,2013-11-14 07:55:00,
2013-11-14 03:00:00,32.4,19.7,30.31,SE,146,2.0,22.0,59,0.00,,,0.00,WUHU216DAVISVP2,2013-11-14 08:00:00,
2013-11-14 03:05:00,32.2,19.9,30.31,SW,231,4.0,22.0,60,0.00,,,0.00,WUHU216DAVISVP2,2013-11-14 08:05:00,
2013-11-14 03:10:00,32.2,19.9,30.30,WSW,248,6.0,24.0,60,0.00,,,0.00,WUHU216DAVISVP2,2013-11-14 08:10:00,
2013-11-14 03:15:00,32.3,20.0,30.31,SSW,202,8.0,24.0,60,0.00,,,0.00,WUHU216DAVISVP2,2013-11-14 08:15:00,
2013-11-14 03:20:00,32.3,20.0,30.31,SSE,148,6.0,24.0,60,0.00,,,0.00,WUHU216DAVISVP2,2013-11-14 08:20:00,
2013-11-14 03:25:00,32.1,19.8,30.31,SW,227,10.0,24.0,60,0.00,,,0.00,WUHU216DAVISVP2,2013-11-14 08:25:00,
2013-11-14 03:30:00,32.3,20.0,30.31,West,269,2.0,26.0,60,0.00,,,0.00,WUHU216DAVISVP2,2013-11-14 08:30:00,
2013-11-14 03:35:00,32.4,20.1,30.31,West,263,6.0,26.0,60,0.00,,,0.00,WUHU216DAVISVP2,2013-11-14 08:35:00,
2013-11-14 03:40:00,32.5,19.8,30.31,WSW,240,8.0,24.0,59,0.00,,,0.00,WUHU216DAVISVP2,2013-11-14 08:40:00,
2013-11-14 03:45:00,32.5,19.8,30.32,WSW,255,8.0,24.0,59,0.00,,,0.00,WUHU216DAVISVP2,2013-11-14 08:45:00,
2013-11-14 03:50:00,32.5,19.8,30.32,SW,233,2.0,18.0,59,0.00,,,0.00,WUHU216DAVISVP2,2013-11-14 08:50:00,
2013-11-14 03:55:00,32.3,20.0,30.32,NW,312,4.0,18.0,60,0.00,,,0.00,WUHU216DAVISVP2,2013-11-14 08:55:00,
2013-11-14 04:00:00,32.3,20.0,30.32,SW,234,4.0,14.0,60,0.00,,,0.00,WUHU216DAVISVP2,2013-11-14 09:00:00,
2013-11-14 04:05:00,32.2,20.3,30.32,West,259,10.0,16.0,61,0.00,,,0.00,WUHU216DAVISVP2,2013-11-14 09:05:00,
2013-11-14 04:10:00,32.0,20.1,30.32,SW,236,4.0,16.0,61,0.00,,,0.00,WUHU216DAVISVP2,2013-11-14 09:10:00,
2013-11-14 04:15:00,31.9,20.4,30.32,West,272,2.0,14.0,62,0.00,,,0.00,WUHU216DAVISVP2,2013-11-14 09:15:00,
2013-11-14 04:20:00,31.6,20.1,30.32,West,265,6.0,14.0,62,0.00,,,0.00,WUHU216DAVISVP2,2013-11-14 09:20:00,
2013-11-14 04:25:00,31.5,20.0,30.33,WSW,258,2.0,10.0,62,0.00,,,0.00,WUHU216DAVISVP2,2013-11-14 09:25:00,
2013-11-14 04:30:00,31.4,20.3,30.33,SW,221,4.0,8.0,63,0.00,,,0.00,WUHU216DAVISVP2,2013-11-14 09:30:00,
2013-11-14 04:35:00,31.4,20.3,30.33,SW,219,2.0,14.0,63,0.00,,,0.00,WUHU216DAVISVP2,2013-11-14 09:35:00,
2013-11-14 04:40:00,31.3,20.2,30.33,SW,229,2.0,14.0,63,0.00,,,0.00,WUHU216DAVISVP2,2013-11-14 09:40:00,
2013-11-14 04:45:00,31.2,20.5,30.33,WSW,242,0.0,12.0,64,0.00,,,0.00,WUHU216DAVISVP2,2013-11-14 09:45:00,
2013-11-14 04:50:00,31.0,20.3,30.33,South,171,0.0,6.0,64,0.00,,,0.00,WUHU216DAVISVP2,2013-11-14 09:50:00,
2013-11-14 04:55:00,30.8,20.5,30.33,SSW,194,2.0,6.0,65,0.00,,,0.00,WUHU216DAVISVP2,2013-11-14 09:55:00,
2013-11-14 05:00:00,30.7,20.4,30.33,WSW,249,2.0,10.0,65,0.00,,,0.00,WUHU216DAVISVP2,2013-11-14 10:00:00,
2013-11-14 05:05:00,30.6,20.7,30.33,SW,232,2.0,10.0,66,0.00,,,0.00,WUHU216DAVISVP2,2013-11-14 10:05:00,
2013-11-14 05:10:00,30.6,20.7,30.33,SW,233,2.0,10.0,66,0.00,,,0.00,WUHU216DAVISVP2,2013-11-14 10:10:00,
2013-11-14 05:15:00,30.6,20.7,30.33,South,186,6.0,16.0,66,0.00,,,0.00,WUHU216DAVISVP2,2013-11-14 10:15:00,
2013-11-14 05:20:00,30.7,20.7,30.33,SW,232,2.0,16.0,66,0.00,,,0.00,WUHU216DAVISVP2,2013-11-14 10:20:00,
2013-11-14 05:25:00,30.6,20.7,30.32,SSW,196,6.0,10.0,66,0.00,,,0.00,WUHU216DAVISVP2,2013-11-14 10:25:00,
2013-11-14 05:30:00,30.6,20.7,30.32,SSW,210,0.0,12.0,66,0.00,,,0.00,WUHU216DAVISVP2,2013-11-14 10:30:00,
2013-11-14 05:35:00,30.6,21.0,30.32,SSW,201,4.0,14.0,67,0.00,,,0.00,WUHU216DAVISVP2,2013-11-14 10:35:00,
2013-11-14 05:40:00,30.5,20.9,30.32,SSW,209,6.0,16.0,67,0.00,,,0.00,WUHU216DAVISVP2,2013-11-14 10:40:00,
2013-11-14 05:45:00,30.5,20.9,30.32,SSW,197,4.0,16.0,67,0.00,,,0.00,WUHU216DAVISVP2,2013-11-14 10:45:00,
2013-11-14 05:50:00,30.4,21.2,30.32,WSW,237,4.0,12.0,68,0.00,,,0.00,WUHU216DAVISVP2,2013-11-14 10:50:00,
2013-11-14 05:55:00,30.4,21.2,30.32,SW,228,0.0,14.0,68,0.00,,,0.00,WUHU216DAVISVP2,2013-11-14 10:55:00,
2013-11-14 06:00:00,30.5,21.3,30.32,South,169,8.0,16.0,68,0.00,,,0.00,WUHU216DAVISVP2,2013-11-14 11:00:00,
2013-11-14 06:05:00,30.6,21.4,30.32,SW,234,2.0,16.0,68,0.00,,,0.00,WUHU216DAVISVP2,2013-11-14 11:05:00,
2013-11-14 06:10:00,30.6,21.0,30.32,SSW,211,4.0,16.0,67,0.00,,,0.00,WUHU216DAVISVP2,2013-11-14 11:10:00,
2013-11-14 06:15:00,30.5,21.3,30.32,SSW,209,2.0,16.0,68,0.00,,,0.00,WUHU216DAVISVP2,2013-11-14 11:15:00,
2013-11-14 06:20:00,30.3,21.4,30.32,WSW,250,4.0,12.0,69,0.00,,,0.00,WUHU216DAVISVP2,2013-11-14 11:20:00,
2013-11-14 06:25:00,30.2,21.3,30.32,WSW,247,2.0,14.0,69,0.00,,,0.00,WUHU216DAVISVP2,2013-11-14 11:25:00,
2013-11-14 06:30:00,30.1,21.2,30.32,SSW,207,4.0,14.0,69,0.00,,,0.00,WUHU216DAVISVP2,2013-11-14 11:30:00,
2013-11-14 06:35:00,30.2,21.3,30.32,SSW,211,2.0,16.0,69,0.00,,,0.00,WUHU216DAVISVP2,2013-11-14 11:35:00,
2013-11-14 06:40:00,30.2,21.3,30.31,SSE,165,4.0,24.0,69,0.00,,,0.00,WUHU216DAVISVP2,2013-11-14 11:40:00,
2013-11-14 06:45:00,30.2,21.3,30.31,South,187,12.0,24.0,69,0.00,,,0.00,WUHU216DAVISVP2,2013-11-14 11:45:00,
2013-11-14 06:50:00,30.2,21.7,30.32,SSW,205,8.0,20.0,70,0.00,,,0.00,WUHU216DAVISVP2,2013-11-14 11:50:00,
2013-11-14 06:55:00,30.3,21.4,30.32,West,260,4.0,20.0,69,0.00,,,0.00,WUHU216DAVISVP2,2013-11-14 11:55:00,
2013-11-14 07:00:00,30.3,21.7,30.32,SW,215,6.0,16.0,70,0.00,,,0.00,WUHU216DAVISVP2,2013-11-14 12:00:00,
2013-11-14 07:05:00,30.2,21.7,30.31,South,190,4.0,16.0,70,0.00,,,0.00,WUHU216DAVISVP2,2013-11-14 12:05:00,
2013-11-14 07:10:00,30.2,21.7,30.31,West,279,10.0,18.0,70,0.00,,,0.00,WUHU216DAVISVP2,2013-11-14 12:10:00,
2013-11-14 07:15:00,30.2,21.7,30.31,WSW,248,6.0,18.0,70,0.00,,,0.00,WUHU216DAVISVP2,2013-11-14 12:15:00,
2013-11-14 07:20:00,30.3,21.7,30.31,South,177,14.0,18.0,70,0.00,,,0.00,WUHU216DAVISVP2,2013-11-14 12:20:00,
2013-11-14 07:25:00,30.4,21.5,30.31,West,265,8.0,18.0,69,0.00,,,0.00,WUHU216DAVISVP2,2013-11-14 12:25:00,
2013-11-14 07:30:00,30.5,21.6,30.31,South,185,0.0,16.0,69,0.00,,,0.00,WUHU216DAVISVP2,2013-11-14 12:30:00,
2013-11-14 07:35:00,30.5,21.6,30.31,SW,223,8.0,16.0,69,0.00,,,0.00,WUHU216DAVISVP2,2013-11-14 12:35:00,
2013-11-14 07:40:00,30.5,21.6,30.31,SSW,210,4.0,18.0,69,0.00,,,0.00,WUHU216DAVISVP2,2013-11-14 12:40:00,
2013-11-14 07:45:00,30.6,21.7,30.31,SSW,198,6.0,20.0,69,0.00,,,0.00,WUHU216DAVISVP2,2013-11-14 12:45:00,
2013-11-14 07:50:00,30.7,21.8,30.31,South,180,8.0,20.0,69,0.00,,,0.00,WUHU216DAVISVP2,2013-11-14 12:50:00,
2013-11-14 07:55:00,30.8,21.5,30.31,West,268,6.0,20.0,68,0.00,,,0.00,WUHU216DAVISVP2,2013-11-14 12:55:00,
2013-11-14 08:00:00,31.0,21.7,30.30,SSW,192,8.0,20.0,68,0.00,,,0.00,WUHU216DAVISVP2,2013-11-14 13:00:00,
2013-11-14 08:05:00,31.1,21.8,30.30,WSW,252,2.0,20.0,68,0.00,,,0.00,WUHU216DAVISVP2,2013-11-14 13:05:00,
2013-11-14 08:10:00,31.3,21.7,30.30,WSW,252,6.0,20.0,67,0.00,,,0.00,WUHU216DAVISVP2,2013-11-14 13:10:00,
2013-11-14 08:15:00,31.6,22.0,30.30,South,188,8.0,16.0,67,0.00,,,0.00,WUHU216DAVISVP2,2013-11-14 13:15:00,
2013-11-14 08:20:00,31.9,21.9,30.30,SW,215,2.0,16.0,66,0.00,,,0.00,WUHU216DAVISVP2,2013-11-14 13:20:00,
2013-11-14 08:25:00,32.3,21.5,30.30,WSW,239,6.0,22.0,64,0.00,,,0.00,WUHU216DAVISVP2,2013-11-14 13:25:00,
2013-11-14 08:30:00,32.7,21.9,30.29,SSW,196,4.0,26.0,64,0.00,,,0.00,WUHU216DAVISVP2,2013-11-14 13:30:00,
2013-11-14 08:35:00,32.9,22.1,30.29,West,268,10.0,26.0,64,0.00,,,0.00,WUHU216DAVISVP2,2013-11-14 13:35:00,
2013-11-14 08:40:00,33.0,21.8,30.29,SSW,212,4.0,20.0,63,0.00,,,0.00,WUHU216DAVISVP2,2013-11-14 13:40:00,
2013-11-14 08:45:00,33.1,21.9,30.29,WSW,238,2.0,22.0,63,0.00,,,0.00,WUHU216DAVISVP2,2013-11-14 13:45:00,
2013-11-14 08:50:00,33.3,21.7,30.29,WSW,248,2.0,22.0,62,0.00,,,0.00,WUHU216DAVISVP2,2013-11-14 13:50:00,
2013-11-14 08:55:00,33.6,21.6,30.30,SW,217,10.0,22.0,61,0.00,,,0.00,WUHU216DAVISVP2,2013-11-14 13:55:00,
2013-11-14 09:00:00,34.0,22.0,30.30,SW,227,8.0,22.0,61,0.00,,,0.00,WUHU216DAVISVP2,2013-11-14 14:00:00,
2013-11-14 09:06:00,34.3,21.9,30.30,West,263,8.0,20.0,60,0.00,,,0.00,WUHU216DAVISVP2,2013-11-14 14:06:00,
2013-11-14 09:11:00,34.4,22.4,30.30,WNW,298,4.0,20.0,61,0.00,,,0.00,WUHU216DAVISVP2,2013-11-14 14:11:00,
2013-11-14 09:16:00,34.7,22.3,30.30,SW,228,12.0,24.0,60,0.00,,,0.00,WUHU216DAVISVP2,2013-11-14 14:16:00,
2013-11-14 09:21:00,34.9,22.5,30.30,SSW,196,4.0,24.0,60,0.00,,,0.00,WUHU216DAVISVP2,2013-11-14 14:21:00,
2013-11-14 09:26:00,34.9,22.5,30.30,WSW,237,14.0,22.0,60,0.00,,,0.00,WUHU216DAVISVP2,2013-11-14 14:26:00,
2013-11-14 09:30:00,35.0,22.2,30.30,SW,223,12.0,22.0,59,0.00,,,0.00,WUHU216DAVISVP2,2013-11-14 14:30:00,
2013-11-14 09:36:00,35.4,22.5,30.29,SW,232,6.0,22.0,59,0.00,,,0.00,WUHU216DAVISVP2,2013-11-14 14:36:00,
2013-11-14 09:41:00,35.6,22.3,30.30,WSW,242,6.0,22.0,58,0.00,,,0.00,WUHU216DAVISVP2,2013-11-14 14:41:00,
2013-11-14 09:46:00,35.7,22.8,30.29,SE,142,4.0,20.0,59,0.00,,,0.00,WUHU216DAVISVP2,2013-11-14 14:46:00,
2013-11-14 09:47:00,35.8,22.9,30.29,South,182,14.0,20.0,59,0.00,,,0.00,WUHU216DAVISVP2,2013-11-14 14:47:00,
2013-11-14 09:52:00,36.0,23.1,30.29,SE,134,2.0,16.0,59,0.00,,,0.00,WUHU216DAVISVP2,2013-11-14 14:52:00,
2013-11-14 09:57:00,36.3,22.5,30.29,South,182,16.0,22.0,57,0.00,,,0.00,WUHU216DAVISVP2,2013-11-14 14:57:00,
2013-11-14 10:02:00,36.6,22.8,30.29,West,261,12.0,22.0,57,0.00,,,0.00,WUHU216DAVISVP2,2013-11-14 15:02:00,
2013-11-14 10:07:00,36.9,22.7,30.28,ESE,112,2.0,22.0,56,0.00,,,0.00,WUHU216DAVISVP2,2013-11-14 15:07:00,
2013-11-14 10:12:00,37.4,22.7,30.28,South,189,10.0,26.0,55,0.00,,,0.00,WUHU216DAVISVP2,2013-11-14 15:12:00,
2013-11-14 10:17:00,37.8,22.6,30.28,SW,223,6.0,30.0,54,0.00,,,0.00,WUHU216DAVISVP2,2013-11-14 15:17:00,
2013-11-14 10:22:00,38.0,22.8,30.28,South,179,12.0,30.0,54,0.00,,,0.00,WUHU216DAVISVP2,2013-11-14 15:22:00,
2013-11-14 10:27:00,38.4,22.3,30.28,SW,233,14.0,24.0,52,0.00,,,0.00,WUHU216DAVISVP2,2013-11-14 15:27:00,
2013-11-14 10:32:00,38.8,22.2,30.28,West,279,6.0,24.0,51,0.00,,,0.00,WUHU216DAVISVP2,2013-11-14 15:32:00,
2013-11-14 10:37:00,39.2,22.5,30.28,WNW,284,6.0,24.0,51,0.00,,,0.00,WUHU216DAVISVP2,2013-11-14 15:37:00,
2013-11-14 10:42:00,39.5,22.8,30.28,West,259,6.0,22.0,51,0.00,,,0.00,WUHU216DAVISVP2,2013-11-14 15:42:00,
2013-11-14 10:47:00,39.8,22.6,30.28,West,260,2.0,20.0,50,0.00,,,0.00,WUHU216DAVISVP2,2013-11-14 15:47:00,
2013-11-14 10:52:00,40.2,22.5,30.28,SW,227,16.0,24.0,49,0.00,,,0.00,WUHU216DAVISVP2,2013-11-14 15:52:00,
2013-11-14 10:57:00,40.7,23.0,30.28,SSE,166,6.0,24.0,49,0.00,,,0.00,WUHU216DAVISVP2,2013-11-14 15:57:00,
2013-11-14 11:02:00,41.2,23.4,30.28,WSW,256,12.0,18.0,49,0.00,,,0.00,WUHU216DAVISVP2,2013-11-14 16:02:00,
2013-11-14 11:07:00,41.5,23.2,30.27,WSW,256,8.0,20.0,48,0.01,,,0.01,WUHU216DAVISVP2,2013-11-14 16:07:00,
2013-11-14 11:12:00,41.8,22.4,30.28,WSW,244,10.0,26.0,46,0.01,,,0.01,WUHU216DAVISVP2,2013-11-14 16:12:00,
2013-11-14 11:17:00,41.7,22.3,30.28,WSW,241,12.0,26.0,46,0.01,,,0.01,WUHU216DAVISVP2,2013-11-14 16:17:00,
2013-11-14 11:22:00,41.9,23.0,30.27,WSW,252,10.0,28.0,47,0.02,,,0.02,WUHU216DAVISVP2,2013-11-14 16:22:00,
2013-11-14 11:27:00,42.0,22.1,30.26,South,188,6.0,28.0,45,0.02,,,0.02,WUHU216DAVISVP2,2013-11-14 16:27:00,
2013-11-14 11:32:00,42.3,22.3,30.26,SSW,208,6.0,32.0,45,0.02,,,0.02,WUHU216DAVISVP2,2013-11-14 16:32:00,
2013-11-14 11:37:00,42.7,22.7,30.26,SE,139,4.0,32.0,45,0.02,,,0.02,WUHU216DAVISVP2,2013-11-14 16:37:00,
2013-11-14 11:42:00,43.1,23.6,30.25,SW,226,6.0,22.0,46,0.03,,,0.03,WUHU216DAVISVP2,2013-11-14 16:42:00,
2013-11-14 11:47:00,43.4,23.3,30.25,WSW,252,4.0,22.0,45,0.03,,,0.03,WUHU216DAVISVP2,2013-11-14 16:47:00,
2013-11-14 11:52:00,43.9,23.2,30.25,South,169,18.0,22.0,44,0.04,,,0.04,WUHU216DAVISVP2,2013-11-14 16:52:00,
2013-11-14 11:57:00,44.3,23.0,30.25,WSW,242,8.0,22.0,43,0.04,,,0.04,WUHU216DAVISVP2,2013-11-14 16:57:00,
2013-11-14 12:02:00,44.4,24.3,30.24,SSW,207,4.0,26.0,45,0.05,,,0.05,WUHU216DAVISVP2,2013-11-14 17:02:00,
2013-11-14 12:07:00,44.5,23.2,30.24,South,182,10.0,30.0,43,0.05,,,0.06,WUHU216DAVISVP2,2013-11-14 17:07:00,
2013-11-14 12:12:00,44.6,23.3,30.24,West,263,6.0,30.0,43,0.05,,,0.06,WUHU216DAVISVP2,2013-11-14 17:12:00,
2013-11-14 12:17:00,45.0,23.1,30.23,SW,223,12.0,20.0,42,0.05,,,0.06,WUHU216DAVISVP2,2013-11-14 17:17:00,
2013-11-14 12:22:00,45.1,23.8,30.23,SE,139,4.0,18.0,43,0.05,,,0.07,WUHU216DAVISVP2,2013-11-14 17:22:00,
2013-11-14 12:27:00,45.5,24.1,30.23,SW,230,8.0,18.0,43,0.05,,,0.07,WUHU216DAVISVP2,2013-11-14 17:27:00,
2013-11-14 12:32:00,45.7,23.7,30.23,WSW,252,4.0,18.0,42,0.06,,,0.08,WUHU216DAVISVP2,2013-11-14 17:32:00,
2013-11-14 12:37:00,46.1,24.1,30.23,SW,232,16.0,16.0,42,0.06,,,0.08,WUHU216DAVISVP2,2013-11-14 17:37:00,
2013-11-14 12:42:00,46.1,22.9,30.23,SW,221,8.0,24.0,40,0.06,,,0.09,WUHU216DAVISVP2,2013-11-14 17:42:00,
2013-11-14 12:47:00,46.1,23.5,30.23,SW,220,8.0,24.0,41,0.05,,,0.09,WUHU216DAVISVP2,2013-11-14 17:47:00,
2013-11-14 12:52:00,46.4,22.6,30.22,WSW,244,14.0,24.0,39,0.06,,,0.10,WUHU216DAVISVP2,2013-11-14 17:52:00,
2013-11-14 12:57:00,46.7,22.8,30.22,SW,232,2.0,24.0,39,0.06,,,0.10,WUHU216DAVISVP2,2013-11-14 17:57:00,
2013-11-14 13:02:00,46.9,22.4,30.22,SW,223,10.0,24.0,38,0.06,,,0.11,WUHU216DAVISVP2,2013-11-14 18:02:00,
2013-11-14 13:07:00,47.2,22.7,30.21,SW,215,8.0,24.0,38,0.05,,,0.11,WUHU216DAVISVP2,2013-11-14 18:07:00,
2013-11-14 13:12:00,47.6,23.6,30.21,SSW,201,4.0,24.0,39,0.06,,,0.12,WUHU216DAVISVP2,2013-11-14 18:12:00,
2013-11-14 13:17:00,48.0,23.4,30.21,WNW,288,10.0,18.0,38,0.06,,,0.12,WUHU216DAVISVP2,2013-11-14 18:17:00,
2013-11-14 13:22:00,48.2,22.3,30.21,SW,231,10.0,22.0,36,0.05,,,0.12,WUHU216DAVISVP2,2013-11-14 18:22:00,
2013-11-14 13:27:00,48.2,22.3,30.21,SSE,155,4.0,22.0,36,0.06,,,0.13,WUHU216DAVISVP2,2013-11-14 18:27:00,
2013-11-14 13:32:00,48.6,23.3,30.20,SSE,150,2.0,18.0,37,0.05,,,0.13,WUHU216DAVISVP2,2013-11-14 18:32:00,
2013-11-14 13:37:00,48.8,22.8,30.20,SW,229,6.0,18.0,36,0.05,,,0.13,WUHU216DAVISVP2,2013-11-14 18:37:00,
2013-11-14 13:42:00,48.9,22.9,30.20,SW,222,2.0,22.0,36,0.05,,,0.14,WUHU216DAVISVP2,2013-11-14 18:42:00,
2013-11-14 13:47:00,49.2,22.5,30.20,WSW,249,16.0,24.0,35,0.05,,,0.14,WUHU216DAVISVP2,2013-11-14 18:47:00,
2013-11-14 13:52:00,49.3,21.2,30.19,West,274,6.0,26.0,33,0.05,,,0.15,WUHU216DAVISVP2,2013-11-14 18:52:00,
2013-11-14 13:57:00,49.6,21.4,30.19,SSE,166,10.0,26.0,33,0.05,,,0.15,WUHU216DAVISVP2,2013-11-14 18:57:00,
2013-11-14 14:02:00,49.9,21.7,30.19,SW,230,8.0,22.0,33,0.04,,,0.15,WUHU216DAVISVP2,2013-11-14 19:02:00,
2013-11-14 14:07:00,49.9,21.7,30.19,SW,227,2.0,22.0,33,0.04,,,0.15,WUHU216DAVISVP2,2013-11-14 19:07:00,
2013-11-14 14:12:00,50.0,21.8,30.19,WSW,254,8.0,22.0,33,0.03,,,0.15,WUHU216DAVISVP2,2013-11-14 19:12:00,
2013-11-14 14:17:00,50.0,20.3,30.18,SW,219,10.0,28.0,31,0.04,,,0.16,WUHU216DAVISVP2,2013-11-14 19:17:00,
2013-11-14 14:22:00,50.1,21.1,30.18,SW,224,6.0,28.0,32,0.04,,,0.16,WUHU216DAVISVP2,2013-11-14 19:22:00,
2013-11-14 14:27:00,50.3,22.0,30.18,West,280,6.0,24.0,33,0.03,,,0.16,WUHU216DAVISVP2,2013-11-14 19:27:00,
2013-11-14 14:32:00,50.3,22.0,30.18,West,276,10.0,28.0,33,0.04,,,0.17,WUHU216DAVISVP2,2013-11-14 19:32:00,
2013-11-14 14:37:00,50.4,22.1,30.17,SW,233,10.0,28.0,33,0.04,,,0.17,WUHU216DAVISVP2,2013-11-14 19:37:00,
2013-11-14 14:42:00,50.4,22.8,30.18,SW,229,10.0,26.0,34,0.03,,,0.17,WUHU216DAVISVP2,2013-11-14 19:42:00,
2013-11-14 14:47:00,50.3,22.0,30.17,WSW,238,12.0,24.0,33,0.03,,,0.17,WUHU216DAVISVP2,2013-11-14 19:47:00,
2013-11-14 14:52:00,50.3,21.3,30.17,South,169,28.0,28.0,32,0.02,,,0.17,WUHU216DAVISVP2,2013-11-14 19:52:00,
2013-11-14 14:57:00,50.1,21.1,30.17,SW,223,6.0,28.0,32,0.03,,,0.18,WUHU216DAVISVP2,2013-11-14 19:57:00,
2013-11-14 15:02:00,50.0,21.8,30.17,South,184,2.0,28.0,33,0.03,,,0.18,WUHU216DAVISVP2,2013-11-14 20:02:00,
2013-11-14 15:07:00,49.9,22.4,30.17,SW,218,22.0,32.0,34,0.03,,,0.18,WUHU216DAVISVP2,2013-11-14 20:07:00,
2013-11-14 15:12:00,49.9,22.4,30.17,SW,215,8.0,34.0,34,0.03,,,0.18,WUHU216DAVISVP2,2013-11-14 20:12:00,
2013-11-14 15:17:00,49.8,22.3,30.17,SW,234,6.0,34.0,34,0.02,,,0.18,WUHU216DAVISVP2,2013-11-14 20:17:00,
2013-11-14 15:22:00,49.9,22.4,30.16,SSW,192,4.0,28.0,34,0.02,,,0.18,WUHU216DAVISVP2,2013-11-14 20:22:00,
2013-11-14 15:27:00,50.0,22.5,30.17,SW,214,8.0,28.0,34,0.02,,,0.18,WUHU216DAVISVP2,2013-11-14 20:27:00,
2013-11-14 15:32:00,49.9,22.4,30.17,NW,313,10.0,28.0,34,0.01,,,0.18,WUHU216DAVISVP2,2013-11-14 20:32:00,
2013-11-14 15:37:00,49.8,22.3,30.16,SSW,205,8.0,20.0,34,0.01,,,0.18,WUHU216DAVISVP2,2013-11-14 20:37:00,
2013-11-14 15:42:00,49.8,22.3,30.16,West,274,6.0,24.0,34,0.01,,,0.18,WUHU216DAVISVP2,2013-11-14 20:42:00,
2013-11-14 15:47:00,49.8,22.3,30.16,SSW,209,12.0,24.0,34,0.01,,,0.18,WUHU216DAVISVP2,2013-11-14 20:47:00,
2013-11-14 15:52:00,49.9,22.4,30.16,SE,141,12.0,22.0,34,0.01,,,0.18,WUHU216DAVISVP2,2013-11-14 20:52:00,
2013-11-14 15:57:00,49.7,21.5,30.16,SSW,198,12.0,24.0,33,0.00,,,0.18,WUHU216DAVISVP2,2013-11-14 20:57:00,
2013-11-14 16:02:00,49.7,21.5,30.16,WSW,239,8.0,30.0,33,0.00,,,0.18,WUHU216DAVISVP2,2013-11-14 21:02:00,
2013-11-14 16:07:00,49.7,21.5,30.16,SW,221,4.0,30.0,33,0.00,,,0.18,WUHU216DAVISVP2,2013-11-14 21:07:00,
2013-11-14 16:12:00,49.6,21.4,30.16,SW,216,6.0,22.0,33,0.00,,,0.18,WUHU216DAVISVP2,2013-11-14 21:12:00,
2013-11-14 16:17:00,49.7,22.2,30.16,SW,226,10.0,24.0,34,0.00,,,0.18,WUHU216DAVISVP2,2013-11-14 21:17:00,
2013-11-14 16:22:00,49.5,22.0,30.16,SSW,202,10.0,24.0,34,0.00,,,0.18,WUHU216DAVISVP2,2013-11-14 21:22:00,
2013-11-14 16:27:00,49.3,21.9,30.16,SW,225,22.0,28.0,34,0.00,,,0.18,WUHU216DAVISVP2,2013-11-14 21:27:00,
2013-11-14 16:32:00,49.1,21.0,30.15,SW,229,16.0,28.0,33,0.00,,,0.18,WUHU216DAVISVP2,2013-11-14 21:32:00,
2013-11-14 16:37:00,49.0,22.3,30.15,SSW,199,14.0,24.0,35,0.00,,,0.18,WUHU216DAVISVP2,2013-11-14 21:37:00,
2013-11-14 16:42:00,48.6,23.9,30.15,SSW,213,8.0,22.0,38,0.00,,,0.18,WUHU216DAVISVP2,2013-11-14 21:42:00,
2013-11-14 16:47:00,48.2,23.6,30.15,SSW,198,2.0,18.0,38,0.00,,,0.18,WUHU216DAVISVP2,2013-11-14 21:47:00,
2013-11-14 16:52:00,47.8,24.4,30.14,SE,146,2.0,20.0,40,0.00,,,0.18,WUHU216DAVISVP2,2013-11-14 21:52:00,
2013-11-14 16:57:00,47.6,24.3,30.14,SSE,156,6.0,24.0,40,0.00,,,0.18,WUHU216DAVISVP2,2013-11-14 21:57:00,
2013-11-14 17:02:00,47.6,24.3,30.14,SE,146,8.0,24.0,40,0.00,,,0.18,WUHU216DAVISVP2,2013-11-14 22:02:00,
2013-11-14 17:07:00,47.2,24.5,30.15,South,184,0.0,24.0,41,0.00,,,0.18,WUHU216DAVISVP2,2013-11-14 22:07:00,
2013-11-14 17:12:00,47.0,23.7,30.15,SW,223,8.0,18.0,40,0.00,,,0.18,WUHU216DAVISVP2,2013-11-14 22:12:00,
2013-11-14 17:17:00,46.9,23.6,30.15,SW,215,0.0,24.0,40,0.00,,,0.18,WUHU216DAVISVP2,2013-11-14 22:17:00,
2013-11-14 17:22:00,46.7,24.1,30.15,SW,227,6.0,24.0,41,0.00,,,0.18,WUHU216DAVISVP2,2013-11-14 22:22:00,
2013-11-14 17:27:00,46.4,23.8,30.15,SW,217,12.0,16.0,41,0.00,,,0.18,WUHU216DAVISVP2,2013-11-14 22:27:00,
2013-11-14 17:32:00,46.3,23.1,30.15,WSW,246,4.0,18.0,40,0.00,,,0.18,WUHU216DAVISVP2,2013-11-14 22:32:00,
2013-11-14 17:37:00,46.2,23.6,30.15,South,169,6.0,22.0,41,0.00,,,0.18,WUHU216DAVISVP2,2013-11-14 22:37:00,
2013-11-14 17:42:00,46.0,23.4,30.15,SSW,202,0.0,22.0,41,0.00,,,0.18,WUHU216DAVISVP2,2013-11-14 22:42:00,
2013-11-14 17:47:00,45.9,23.3,30.15,SW,223,8.0,16.0,41,0.00,,,0.18,WUHU216DAVISVP2,2013-11-14 22:47:00,
2013-11-14 17:52:00,45.8,23.8,30.15,SW,227,8.0,16.0,42,0.00,,,0.18,WUHU216DAVISVP2,2013-11-14 22:52:00,
2013-11-14 17:57:00,45.7,23.2,30.15,SSW,200,6.0,18.0,41,0.00,,,0.18,WUHU216DAVISVP2,2013-11-14 22:57:00,
2013-11-14 18:02:00,45.8,23.2,30.15,SSE,157,8.0,22.0,41,0.00,,,0.18,WUHU216DAVISVP2,2013-11-14 23:02:00,
2013-11-14 18:07:00,46.0,24.0,30.15,South,181,4.0,24.0,42,0.00,,,0.18,WUHU216DAVISVP2,2013-11-14 23:07:00,
2013-11-14 18:12:00,45.7,22.6,30.15,WSW,242,4.0,24.0,40,0.00,,,0.18,WUHU216DAVISVP2,2013-11-14 23:12:00,
2013-11-14 18:17:00,45.8,22.6,30.15,West,271,0.0,26.0,40,0.00,,,0.18,WUHU216DAVISVP2,2013-11-14 23:17:00,
2013-11-14 18:22:00,45.7,22.6,30.16,SW,234,2.0,26.0,40,0.00,,,0.18,WUHU216DAVISVP2,2013-11-14 23:22:00,
2013-11-14 18:27:00,45.7,22.6,30.15,SW,225,12.0,24.0,40,0.00,,,0.18,WUHU216DAVISVP2,2013-11-14 23:27:00,
2013-11-14 18:32:00,45.6,23.1,30.15,SSW,207,14.0,28.0,41,0.00,,,0.18,WUHU216DAVISVP2,2013-11-14 23:32:00,
2013-11-14 18:37:00,45.6,22.5,30.15,SW,223,6.0,28.0,40,0.00,,,0.18,WUHU216DAVISVP2,2013-11-14 23:37:00,
2013-11-14 18:42:00,45.6,22.5,30.15,SE,145,6.0,28.0,40,0.00,,,0.18,WUHU216DAVISVP2,2013-11-14 23:42:00,
2013-11-14 18:47:00,45.4,22.9,30.15,SW,232,10.0,28.0,41,0.00,,,0.18,WUHU216DAVISVP2,2013-11-14 23:47:00,
2013-11-14 18:52:00,45.3,22.8,30.15,SSW,207,8.0,22.0,41,0.00,,,0.18,WUHU216DAVISVP2,2013-11-14 23:52:00,
2013-11-14 18:57:00,45.1,22.6,30.15,SW,230,6.0,20.0,41,0.00,,,0.18,WUHU216DAVISVP2,2013-11-14 23:57:00,
2013-11-14 19:02:00,45.1,22.6,30.15,SSE,160,18.0,30.0,41,0.00,,,0.18,WUHU216DAVISVP2,2013-11-15 00:02:00,
2013-11-14 19:07:00,45.1,22.6,30.15,SSW,206,4.0,30.0,41,0.00,,,0.18,WUHU216DAVISVP2,2013-11-15 00:07:00,
2013-11-14 19:12:00,45.1,22.6,30.15,SSW,212,8.0,26.0,41,0.00,,,0.18,WUHU216DAVISVP2,2013-11-15 00:12:00,
2013-11-14 19:17:00,45.1,22.6,30.15,WSW,246,4.0,28.0,41,0.00,,,0.18,WUHU216DAVISVP2,2013-11-15 00:17:00,
2013-11-14 19:22:00,45.0,23.1,30.15,SW,214,14.0,28.0,42,0.00,,,0.18,WUHU216DAVISVP2,2013-11-15 00:22:00,
2013-11-14 19:27:00,45.1,22.6,30.15,SW,215,10.0,24.0,41,0.00,,,0.18,WUHU216DAVISVP2,2013-11-15 00:27:00,
2013-11-14 19:32:00,44.9,23.0,30.15,South,186,20.0,26.0,42,0.00,,,0.18,WUHU216DAVISVP2,2013-11-15 00:32:00,
2013-11-14 19:37:00,44.8,22.9,30.15,WSW,242,8.0,28.0,42,0.00,,,0.18,WUHU216DAVISVP2,2013-11-15 00:37:00,
2013-11-14 19:42:00,44.7,22.2,30.15,SW,221,4.0,30.0,41,0.00,,,0.18,WUHU216DAVISVP2,2013-11-15 00:42:00,
2013-11-14 19:47:00,44.7,22.2,30.14,SSE,147,32.0,32.0,41,0.00,,,0.18,WUHU216DAVISVP2,2013-11-15 00:47:00,
2013-11-14 19:52:00,44.6,22.7,30.15,SSE,151,10.0,36.0,42,0.00,,,0.18,WUHU216DAVISVP2,2013-11-15 00:52:00,
2013-11-14 19:57:00,44.6,22.2,30.15,WSW,243,12.0,36.0,41,0.00,,,0.18,WUHU216DAVISVP2,2013-11-15 00:57:00,
2013-11-14 20:02:00,44.6,22.7,30.14,SW,234,10.0,26.0,42,0.00,,,0.18,WUHU216DAVISVP2,2013-11-15 01:02:00,
2013-11-14 20:07:00,44.5,22.7,30.14,WSW,243,8.0,22.0,42,0.00,,,0.18,WUHU216DAVISVP2,2013-11-15 01:07:00,
2013-11-14 20:12:00,44.5,23.2,30.15,South,171,6.0,22.0,43,0.00,,,0.18,WUHU216DAVISVP2,2013-11-15 01:12:00,
2013-11-14 20:17:00,44.5,22.7,30.15,SW,229,6.0,28.0,42,0.00,,,0.18,WUHU216DAVISVP2,2013-11-15 01:17:00,
2013-11-14 20:22:00,44.4,22.6,30.15,SSE,163,6.0,28.0,42,0.00,,,0.18,WUHU216DAVISVP2,2013-11-15 01:22:00,
2013-11-14 20:27:00,44.3,23.0,30.15,West,272,6.0,26.0,43,0.00,,,0.18,WUHU216DAVISVP2,2013-11-15 01:27:00,
2013-11-14 20:32:00,44.2,23.0,30.15,ESE,111,10.0,22.0,43,0.00,,,0.18,WUHU216DAVISVP2,2013-11-15 01:32:00,
2013-11-14 20:37:00,44.4,23.1,30.15,SSW,205,6.0,28.0,43,0.00,,,0.18,WUHU216DAVISVP2,2013-11-15 01:37:00,
2013-11-14 20:42:00,44.5,23.2,30.15,SSW,212,6.0,28.0,43,0.00,,,0.18,WUHU216DAVISVP2,2013-11-15 01:42:00,
2013-11-14 20:47:00,44.5,22.7,30.15,WSW,247,4.0,28.0,42,0.00,,,0.18,WUHU216DAVISVP2,2013-11-15 01:47:00,
2013-11-14 20:52:00,44.5,23.2,30.15,SW,229,20.0,22.0,43,0.00,,,0.18,WUHU216DAVISVP2,2013-11-15 01:52:00,
2013-11-14 20:57:00,44.5,23.2,30.15,ESE,111,10.0,24.0,43,0.00,,,0.18,WUHU216DAVISVP2,2013-11-15 01:57:00,
2013-11-14 21:02:00,44.6,22.7,30.15,SW,229,8.0,30.0,42,0.00,,,0.18,WUHU216DAVISVP2,2013-11-15 02:02:00,
2013-11-14 21:07:00,44.7,23.4,30.15,SW,224,4.0,30.0,43,0.00,,,0.18,WUHU216DAVISVP2,2013-11-15 02:07:00,
2013-11-14 21:12:00,44.5,22.7,30.15,West,259,8.0,26.0,42,0.00,,,0.18,WUHU216DAVISVP2,2013-11-15 02:12:00,
2013-11-14 21:17:00,44.6,22.7,30.15,South,177,6.0,26.0,42,0.00,,,0.18,WUHU216DAVISVP2,2013-11-15 02:17:00,
2013-11-14 21:22:00,44.7,22.2,30.15,West,265,6.0,28.0,41,0.00,,,0.18,WUHU216DAVISVP2,2013-11-15 02:22:00,
2013-11-14 21:27:00,44.6,22.7,30.16,SW,228,10.0,28.0,42,0.00,,,0.18,WUHU216DAVISVP2,2013-11-15 02:27:00,
2013-11-14 21:32:00,44.4,23.1,30.15,WSW,253,8.0,26.0,43,0.00,,,0.18,WUHU216DAVISVP2,2013-11-15 02:32:00,
2013-11-14 21:37:00,44.5,22.7,30.15,SSW,195,16.0,30.0,42,0.00,,,0.18,WUHU216DAVISVP2,2013-11-15 02:37:00,
2013-11-14 21:42:00,44.4,22.6,30.16,WSW,250,6.0,30.0,42,0.00,,,0.18,WUHU216DAVISVP2,2013-11-15 02:42:00,
2013-11-14 21:47:00,44.3,23.0,30.15,South,177,10.0,20.0,43,0.00,,,0.18,WUHU216DAVISVP2,2013-11-15 02:47:00,
2013-11-14 21:52:00,44.2,22.4,30.16,West,272,10.0,20.0,42,0.00,,,0.18,WUHU216DAVISVP2,2013-11-15 02:52:00,
2013-11-14 21:57:00,44.2,22.4,30.16,SW,223,6.0,20.0,42,0.00,,,0.18,WUHU216DAVISVP2,2013-11-15 02:57:00,
2013-11-14 22:02:00,44.1,22.9,30.16,West,261,0.0,20.0,43,0.00,,,0.18,WUHU216DAVISVP2,2013-11-15 03:02:00,
2013-11-14 22:07:00,43.9,22.7,30.16,SW,234,10.0,20.0,43,0.00,,,0.18,WUHU216DAVISVP2,2013-11-15 03:07:00,
2013-11-14 22:12:00,43.8,22.6,30.15,SW,221,8.0,20.0,43,0.00,,,0.18,WUHU216DAVISVP2,2013-11-15 03:12:00,
2013-11-14 22:17:00,43.8,22.6,30.15,SSW,206,4.0,20.0,43,0.00,,,0.18,WUHU216DAVISVP2,2013-11-15 03:17:00,
2013-11-14 22:22:00,43.8,22.6,30.15,SW,221,4.0,24.0,43,0.00,,,0.18,WUHU216DAVISVP2,2013-11-15 03:22:00,
2013-11-14 22:27:00,43.7,22.5,30.15,WSW,246,18.0,24.0,43,0.00,,,0.18,WUHU216DAVISVP2,2013-11-15 03:27:00,
2013-11-14 22:32:00,43.8,22.0,30.15,SSW,193,8.0,28.0,42,0.00,,,0.18,WUHU216DAVISVP2,2013-11-15 03:32:00,
2013-11-14 22:37:00,44.0,22.8,30.15,SSW,213,10.0,28.0,43,0.00,,,0.18,WUHU216DAVISVP2,2013-11-15 03:37:00,
2013-11-14 22:42:00,43.8,22.0,30.14,South,189,10.0,26.0,42,0.00,,,0.18,WUHU216DAVISVP2,2013-11-15 03:42:00,
2013-11-14 22:47:00,43.9,22.1,30.14,SW,216,8.0,28.0,42,0.00,,,0.18,WUHU216DAVISVP2,2013-11-15 03:47:00,
2013-11-14 22:52:00,43.9,22.1,30.15,ESE,121,2.0,28.0,42,0.00,,,0.18,WUHU216DAVISVP2,2013-11-15 03:52:00,
2013-11-14 22:57:00,43.7,22.5,30.14,SSW,207,4.0,28.0,43,0.00,,,0.18,WUHU216DAVISVP2,2013-11-15 03:57:00,
2013-11-14 23:02:00,43.7,21.9,30.14,SW,236,8.0,28.0,42,0.00,,,0.18,WUHU216DAVISVP2,2013-11-15 04:02:00,
2013-11-14 23:07:00,43.7,22.5,30.15,West,265,4.0,26.0,43,0.00,,,0.18,WUHU216DAVISVP2,2013-11-15 04:07:00,
2013-11-14 23:12:00,43.6,22.4,30.15,SW,227,14.0,28.0,43,0.00,,,0.18,WUHU216DAVISVP2,2013-11-15 04:12:00,
2013-11-14 23:17:00,43.7,21.9,30.15,South,191,2.0,28.0,42,0.00,,,0.18,WUHU216DAVISVP2,2013-11-15 04:17:00,
2013-11-14 23:22:00,43.5,22.3,30.15,South,189,12.0,28.0,43,0.00,,,0.18,WUHU216DAVISVP2,2013-11-15 04:22:00,
2013-11-14 23:27:00,43.6,23.0,30.16,WSW,247,4.0,28.0,44,0.00,,,0.18,WUHU216DAVISVP2,2013-11-15 04:27:00,
2013-11-14 23:32:00,43.4,22.2,30.16,SW,234,16.0,24.0,43,0.00,,,0.18,WUHU216DAVISVP2,2013-11-15 04:32:00,
2013-11-14 23:37:00,43.5,22.3,30.16,SSW,206,4.0,32.0,43,0.00,,,0.18,WUHU216DAVISVP2,2013-11-15 04:37:00,
2013-11-14 23:42:00,43.5,22.3,30.16,SW,225,4.0,32.0,43,0.00,,,0.18,WUHU216DAVISVP2,2013-11-15 04:42:00,
2013-11-14 23:47:00,43.2,22.0,30.16,WSW,238,6.0,22.0,43,0.00,,,0.18,WUHU216DAVISVP2,2013-11-15 04:47:00,
2013-11-14 23:52:00,43.3,22.7,30.16,SSW,211,10.0,22.0,44,0.00,,,0.18,WUHU216DAVISVP2,2013-11-15 04:52:00,
2013-11-14 23:57:00,43.2,22.0,30.15,SW,235,14.0,22.0,43,0.00,,,0.18,WUHU216DAVISVP2,2013-11-15 04:57:00,